Zurück zum Katalog

ATLAS 5 CENTAUR R/B

AktivHEO
NORAD 40888·ROCKET BODY·🇺🇸 United States

Gestartet Sep 2, 2015 von Cape Canaveral Space Force Station

Loading…

Nächste Überflüge (nächste 24 Stunden)

TLE

AktuellSource: Space-Track

Epoche: Sep 7, 2026, 06:52 UTC

1 40888U 15044B   26250.28666593 -.00000110  00000-0  00000-0 0  9995
2 40888  19.2302 317.8623 6071685  72.3156 342.3753  2.08775769 84026

Verfolge ATLAS 5 CENTAUR R/B in Echtzeit mit AllMySat

Download on the App Store